FLOCK 2K-18 (42887 NORAD) Tracking and Keplerian Element Data

This shows tracking and keplerian element data for the satellite.

Feedback or suggestion? Click here.




ElementValue
Catalog42887
NameFLOCK 2K-18
Epoch Orbit3279
Epoch Day45.4134673
Epoch Year2018
RAAN308.2914
Inclination96.9929
Eccentricity0.0012575
Argument of Perigee176.4956
Mean Anonmoly183.6379
Mean Motion15.35587997
Decay Rate6.729E-05
L11 42887U 17042BQ 18045.41346730 .00006729 00000-0 19622-3 0 9996
L22 42887 96.9929 308.2914 0012575 176.4956 183.6379 15.35587997 32797

Live tracking and technical data element details for FLOCK 2K-18 (NORAD 42887). FLOCK 2K-18 can be tracked NOW for your location showing map with azimuth and elevation plus other details from your city location.

Track the satellite on the map from your city or location and see movement details for azimuth, elevation, latitude, longitude, range, height, and movement on the map or in text.







IsCatalogInMostPopularTable: catalog: 42887, numindb: 155
Update: records affected: 1



GetName: 42887 FLOCK 2K-18

Hit Count: updated at: Mon, 19 Nov 2018 14:34:09 GMT